Location: Casa Toninetti
(45.2167°N, 11.3000°E)
Time: 03:48:18
(UTC+00:00)

Daily predictions for brighter satellites

Satellite Brightness Start Highest point End
(mag) Time Altitude Azimuth Time Altitude Azimuth Time Altitude Azimuth
ADEOS II 4.3 00:42:16 10° NE 00:44:28 20° ENE 00:44:28 20° ENE
SL-16 R/B 4.1 01:15:09 25° NNW 01:15:09 25° NNW 01:17:33 10° NNW
USA 267 4.1 01:08:16 10° ENE 01:13:06 42° E 01:13:06 42° E
CZ-2D R/B 3.8 01:16:24 10° N 01:18:48 27° N 01:18:48 27° N
Lacrosse 5 3.6 01:29:27 29° ENE 01:29:27 29° ENE 01:32:00 10° NE
ATLAS 5 CENTAUR R/B 4.1 01:30:41 18° N 01:30:41 18° N 01:32:25 10° NNE
Resurs 1-4 Rocket 3.8 01:23:34 10° N 01:25:56 27° N 01:25:56 27° N
USA 234 3.8 01:43:30 10° ESE 01:49:50 55° NNE 01:55:07 15° NW
Cosmos 1821 Rocket 3.9 01:54:03 10° N 02:00:05 82° N 02:00:05 82° N
CZ-4B R/B 4.5 01:55:25 10° N 01:58:44 40° N 01:58:44 40° N
Cosmos 1697 Rocket 3.0 02:01:35 62° NNE 02:01:35 62° NNE 02:06:17 10° NNE
Cosmos 1980 Rocket 2.5 02:05:36 61° ESE 02:05:41 61° ESE 02:11:16 10° NNE
X-37B 4.0 02:09:45 10° E 02:09:45 10° E 02:09:49 10° E
NOSS 2-2 (C) 4.5 02:06:13 40° NW 02:08:39 86° NE 02:16:35 10° SE
Meteor 1-26 Rocket 4.2 02:11:26 74° E 02:11:26 74° E 02:16:44 10° NNE
Cosmos 1934 Rocket 4.2 02:05:43 10° N 02:11:45 64° E 02:15:17 26° SSE
Cosmos 1515 Rocket 4.5 02:12:57 47° NE 02:12:57 47° NE 02:16:17 10° NNE
Cosmos 2263 Rocket 3.5 02:07:16 10° NNW 02:12:35 40° NE 02:17:53 10° SE
Meteor 1-25 Rocket 4.5 02:10:06 10° NNW 02:14:52 59° NW 02:14:52 59° NW
SL-16 R/B 4.1 02:17:49 12° SSE 02:21:52 24° ESE 02:26:20 10° NE
CZ-3B R/B 3.1 02:25:23 38° N 02:25:23 38° N 02:31:19 10° NE
USA 305 3.8 02:27:21 45° NNE 02:27:21 45° NNE 02:30:39 10° NE
ADEOS II 2.9 02:21:34 10° N 02:25:23 38° NW 02:25:23 38° NW
Nadezhda 3 Rocket 3.9 02:26:57 63° W 02:26:59 63° W 02:33:06 10° N
USA 306 3.7 02:31:23 47° N 02:31:23 47° N 02:34:51 10° NE
ARIANE 5 R/B 2.4 02:26:25 10° N 02:31:22 75° NW 02:31:22 75° NW
CZ-4C R/B 4.4 02:32:38 36° E 02:33:16 39° ENE 02:36:37 10° N
IDEFIX/ARIANE 42P 2.5 02:30:42 10° NNE 02:36:00 90° NW 02:36:51 64° SSW
Cosmos 1605 Rocket 4.3 02:32:03 10° N 02:38:28 68° E 02:44:49 10° SSE
Cosmos 1535 Rocket 4.4 02:33:26 10° N 02:39:52 84° W 02:45:13 15° S
Meteor 1-14 Rocket 4.0 02:34:23 10° NNW 02:40:01 83° W 02:42:40 33° S
Cosmos 2228 Rocket 3.3 02:39:36 55° SE 02:40:18 65° E 02:44:41 10° NNE
ASTEX 1 3.3 02:35:54 10° N 02:40:55 79° W 02:41:21 72° SW
CZ-2C R/B 4.0 02:36:40 10° NNE 02:41:21 34° E 02:46:03 10° SSE
SL-4 R/B 3.9 02:45:52 23° SSE 02:47:03 25° SE 02:50:56 10° ENE
CZ-2D R/B 3.6 02:44:29 10° N 02:48:18 63° NW 02:48:18 63° NW
Cosmos 1869 Rocket 4.1 02:45:31 10° N 02:49:49 57° ENE 02:54:04 10° SSE
USA 267 3.4 02:51:16 10° NE 02:57:42 61° NNW 03:00:27 35° W
Cosmos 1782 3.9 02:59:09 31° NW 02:59:09 31° NW 03:01:46 10° N
USA 307 3.6 02:57:59 38° NW 02:58:27 40° NNW 03:02:29 10° NE
NOSS 3-3 (A) 3.8 02:56:41 39° SSW 02:59:01 84° SE 03:05:33 10° NE
NOSS 3-3 (C) 3.8 02:56:51 39° SSW 02:59:09 84° SE 03:05:37 10° NE
Cosmos 1238 Rocket 3.9 02:53:18 10° NNW 02:59:48 62° W 03:04:08 19° SSW
Cosmos 44 3.1 02:59:36 58° W 03:00:03 62° NW 03:04:42 10° NNE
CZ-2C R/B 2.5 02:56:16 10° N 03:00:04 81° WNW 03:00:12 79° WSW
SJ 16-02 1.4 02:55:43 10° NNW 03:00:08 79° ENE 03:04:32 10° SSE
CZ-2D R/B 4.3 02:59:18 10° NW 03:00:07 11° NW 03:00:07 11° NW
Meteor 1-4 Rocket 3.3 02:59:37 32° SSE 03:00:50 48° E 03:04:14 10° NNE
Cosmos 389 Rocket 3.9 03:02:26 28° NNW 03:02:26 28° NNW 03:04:29 10° N
USA 308 3.7 03:01:02 36° NW 03:01:39 39° NNW 03:05:40 10° NE
PSLV R/B 4.2 02:59:17 10° NNE 03:03:24 52° E 03:06:47 14° S
Cosmos 2278 4.1 03:02:26 41° W 03:03:40 47° WNW 03:09:12 10° NNE
USA 276 3.4 03:04:24 33° N 03:04:32 33° N 03:07:30 10° ENE
PAYLOAD A 4.2 03:01:05 10° NNE 03:05:45 62° ESE 03:09:59 12° S
Cosmos 990 Rocket 4.2 03:03:10 10° NNW 03:08:23 70° ENE 03:13:35 10° SSE
H-2A R/B 2.0 03:04:03 10° SSE 03:08:25 82° WSW 03:12:55 10° NNW
Lacrosse 5 2.8 03:08:39 29° WNW 03:10:13 36° NNW 03:14:55 10° NE
ERBS 2.1 03:11:03 79° S 03:11:12 83° SE 03:14:34 10° NE
Cosmos 468 Rocket 4.3 03:09:18 17° S 03:13:25 70° ESE 03:18:40 10° NNE
Cosmos 1727 Rocket 4.2 03:07:15 10° S 03:13:36 75° E 03:19:55 10° NNE
ATLAS 2AS CENTAUR R/B 3.8 03:06:52 10° NNW 03:14:10 47° NE 03:20:53 10° ESE
ATLAS 5 CENTAUR R/B 4.3 03:13:54 10° NNW 03:14:53 11° N 03:15:54 10° N
Landsat 5 3.6 03:16:37 10° S 03:21:04 59° W 03:25:31 10° NNW
ADEOS Rocket 3.4 03:15:23 10° SSE 03:22:11 75° ENE 03:28:18 10° N
GENESIS II 4.2 03:21:04 43° WSW 03:22:13 67° NW 03:26:16 10° NNE
Meteor 1-11 Rocket 3.8 03:17:05 10° N 03:22:55 82° E 03:28:34 10° SSE
CZ-4B R/B 2.8 03:20:24 10° SE 03:23:21 38° ENE 03:26:23 10° N
ALOS 4.0 03:20:27 10° NNE 03:24:40 33° E 03:28:52 10° SSE
Cosmos 1459 Rocket 4.4 03:24:45 10° N 03:30:49 62° E 03:36:47 10° SSE
ERS-2 2.0 03:27:37 10° S 03:31:16 76° WSW 03:34:57 10° NNW
USA 234 3.3 03:26:28 10° SSE 03:32:50 56° SW 03:39:16 10° WNW
MSX 4.2 03:28:43 10° N 03:34:11 45° WNW 03:37:57 19° SW
Meteor 1-27 Rocket 3.9 03:28:37 10° S 03:34:32 82° E 03:40:29 10° NNE
Cosmos 1484 Rocket 4.1 03:33:35 10° NNE 03:37:24 42° E 03:41:12 10° S
Cosmos 2360 Rocket 3.3 03:34:17 10° S 03:39:39 45° ESE 03:45:01 10° NE
Cosmos 1536 2.8 03:38:48 10° N 03:42:54 89° W 03:46:58 10° S
X-37B 0.7 03:42:02 33° W 03:43:13 60° SSW 03:46:22 10° ESE
Cosmos 1898 Rocket 3.4 03:38:07 10° NNW 03:43:21 66° WSW 03:48:35 10° S
Cosmos 1697 Rocket 4.4 03:43:20 14° WNW 03:45:30 17° NW 03:49:05 10° N
BREEZE M DEB (TANK) 3.8 03:35:33 10° WNW 03:48:10 50° SW 03:52:09 10° SSE
CZ-4C R/B 4.4 03:42:17 10° NNW 03:48:32 34° NE 03:55:42 10° E
SL-8 R/B 4.1 03:45:53 20° W 03:48:50 43° SSW 03:53:20 10° SE
Meteor 1-31 Rocket 3.9 03:45:11 10° NNE 03:48:52 45° E 03:52:34 10° S
FENGYUN 3A 4.3 03:44:11 10° NNE 03:49:32 60° E 03:54:52 10° S
Cosmos 1980 Rocket 3.4 03:47:24 18° W 03:50:06 25° NW 03:54:46 10° N
deb Chang Zheng 4 3.7 03:46:48 10° NNE 03:51:07 78° ESE 03:55:23 10° S
Cosmos 1437 Rocket 4.4 03:49:23 10° SSE 03:52:52 36° E 03:56:24 10° NNE
Cosmos 858 Rocket 4.4 03:48:55 10° NNW 03:54:07 74° WSW 03:59:17 10° SSE
Cosmos 921 Rocket 4.1 03:52:49 20° W 03:54:31 25° WNW 03:58:02 10° N
Cosmos 2322 Rocket 2.2 03:50:41 10° SSW 03:56:21 77° WNW 04:02:05 10° NNE
Cosmos 2263 Rocket 2.7 03:51:22 10° NW 03:56:26 35° WSW 04:01:29 10° S
USA 32 4.2 03:55:41 10° NNW 04:00:46 51° W 04:05:49 10° SSW
Cosmos 1844 Rocket 3.3 03:57:04 10° NNW 04:02:41 62° ENE 04:08:17 10° SE
Cosmos 1812 4.1 04:01:20 17° WSW 04:02:54 21° WNW 04:05:55 10° NNW
Cosmos 1707 Rocket 3.8 03:59:03 10° SSW 04:03:12 45° WNW 04:07:23 10° N
Cosmos 2173 Rocket 4.0 03:57:14 10° NNW 04:03:33 75° W 04:09:54 10° S
SL-16 R/B 2.4 04:00:01 10° SW 04:05:34 55° WNW 04:11:10 10° NNE
Cosmos 2237 4.4 04:01:02 10° SSW 04:06:44 80° ESE 04:12:28 10° NNE
USA 305 4.5 04:03:32 10° WNW 04:07:09 26° N 04:10:44 10° NE
Cosmos 1666 3.5 04:05:10 10° NNW 04:08:31 30° W 04:11:51 10° SSW
Cosmos 1937 Rocket 3.5 04:04:10 10° NNW 04:09:11 54° WSW 04:14:10 10° S
ARIANE 5 R/B 4.4 04:07:58 10° NW 04:09:44 12° NW 04:11:30 10° WNW
ADEOS 3.5 04:05:47 10° N 04:10:59 71° WNW 04:16:10 10° SSW
Gbstr 26 Del rocket 4.5 04:03:29 10° WNW 04:11:16 57° SW 04:18:05 10° SE
USA 306 4.5 04:07:47 10° WNW 04:11:23 26° N 04:14:58 10° NE
IDEFIX/ARIANE 42P 4.3 04:12:02 10° NNW 04:14:50 15° WNW 04:17:38 10° W
Cosmos 1814 Rocket 4.1 04:11:30 10° SSW 04:16:42 89° ESE 04:22:00 10° NNE
Cosmos 841 Rocket 3.5 04:13:14 10° SSW 04:18:26 72° WNW 04:23:43 10° NNE
CZ-2C R/B 3.2 04:14:57 10° N 04:19:31 33° WNW 04:24:07 10° SW
SAR-Lupe-4 3.9 04:16:49 10° S 04:20:15 43° W 04:23:43 10° NNW
Cosmos 1733 Rocket 3.3 04:16:29 10° NNW 04:20:40 47° W 04:24:48 10° SSW
Cosmos 2061 Rocket 4.1 04:16:17 10° N 04:22:45 80° W 04:29:10 10° S
SKYMED 2 3.8 04:18:33 10° SSE 04:22:53 79° ENE 04:27:14 10° N
Cosmos 44 Rocket 3.2 04:18:43 10° SW 04:23:26 86° WNW 04:28:20 10° NE
SL-4 R/B 2.4 04:21:46 10° WSW 04:26:23 80° NNW 04:31:15 10° ENE
Cosmos 1763 Rocket 4.3 04:22:36 10° SW 04:27:24 34° WNW 04:32:14 10° N
Cosmos 2219 Rocket 3.7 04:24:55 10° S 04:30:11 42° ESE 04:35:31 10° NE
FALCON 9 DEB 3.4 04:30:36 10° WSW 04:33:59 56° NNW 04:37:23 10° NE
Cosmos 2016 Rocket 4.0 04:28:10 10° NNW 04:34:13 65° W 04:40:13 10° S
COSMOS 2428 4.3 04:30:24 10° S 04:35:41 41° ESE 04:41:01 10° NE
Meteor 2-20 Rocket 4.5 04:32:24 10° SSW 04:38:33 76° W 04:44:43 10° N
